星链-32332 (STARLINK-32332)

导读 | 豆包AI

STARLINK-32332是美国太空探索技术公司(SpaceX)星链(Starlink)卫星互联网项目旗下的一颗低轨通信卫星,于2025年1月6日在美国发射入轨,运行于近地轨道。作为星链星座的组成部分,它旨在为全球用户提供高速、低延迟的宽带互联网接入服务,尤其为偏远地区、海洋航空等场景提供网络覆盖,进一步扩充了星链星座的服务能力,支撑SpaceX全球卫星互联网组网布局。

基本信息
目录编号:
62490
目录名称:
STARLINK-32332
国际标识:
2025-003D
轨道中心:
EARTH
卫星名称:
星链-32332
卫星全名:
星链-32332 (STARLINK-32332)
卫星状态:
在轨 (已飞行433 天)
发射日期:
2025-01-06 UTC
国别 :
美国 (US)
星等 :
--
轨道信息
数据来源 国际轨道数据
星历时间: 2026-03-14T13:22:11+0800
21小时前
查看轨道信息
半长轴: 6861.068km
偏心率: 0.0001482
轨道倾角: 42.998°
近地点辐角 274.424°
升交点赤经 263.481°
平近点角 85.644°
近地点: 481.914km
远地点: 483.948km
周期: 94.264分钟
每日圈数: 15.276195
详细信息
固有亮度:
5
最大亮度:
2.5
卫星平台:
Starlink V1.0
覆盖范围:
全球
运营商:
太空探索技术公司
运营商所在国:
美国
制造商(研发单位):
太空探索技术公司
制造商所在国:
美国
使用方式:
暂无
卫星简介
Starlink 计划是 SpaceX 推出的全球卫星互联网项目,通过发射低轨道卫星,为全球尤其是偏远地区提供高速、低延迟的互联网服务。自 2019 年起,Starlink 已部署数千颗卫星,旨在缩小全球数字鸿沟,推动互联网普及。该项目还为军事、航空等行业提供通信支持,带来广泛经济效益。
2D轨道图
3D轨道图
轨道高度分析图
轨道倾角分析图
轨道综合分析图
查看轨道综合分析图